Regional Weather Roundup
Issued by NWS

Home | Current Version | Previous Version | Graphics & Text | Print | Product List | Glossary Off
Versions: 1 2 3 4 5 6 7 8 9 10 11 12 13 14 15 16 17 18 19 20 21 22 23 24 25 26 27 28 29 30 31 32 33 34 35 36 37 38 39 40 41 42 43 44 45 46 47 48 49 50

754
ASUS43 KDTX 230101
RWRMI
MICHIGAN HOURLY REGIONAL WEATHER ROUNDUP
NATIONAL WEATHER SERVICE DETROIT/PONTIAC MI
900 PM EDT WED MAR 22 2017

NOTE: "FAIR" INDICATES FEW OR NO CLOUDS BELOW 12,000 FEET WITH NO
SIGNIFICANT WEATHER AND/OR OBSTRUCTION TO VISIBILITY.

MIZ047>049-052>055-059>063-066>070-074>076-081>083-230200-
SOUTHEAST LOWER MICHIGAN

CITY           SKY/WX    TMP DP  RH WIND       PRES   REMARKS
ADRIAN         CLOUDY    31  15  52 S3        30.52F
ALMA           CLEAR     28  15  57 S6        30.53S WCI  22
ANN ARBOR      PTCLDY    28  17  63 E6        30.52S WCI  22
BAD AXE        CLEAR     24   9  53 CALM      30.54F
CARO           CLEAR     24   8  50 CALM      30.53F
DETROIT CITY   CLEAR     27  16  63 SE6       30.55S WCI  20
DETROIT        PTCLDY    29  15  56 S5        30.55F WCI  24
FLINT          CLEAR     27  10  49 NE5       30.53F WCI  22
GROSSE ILE     PTCLDY    28  18  64 MISG      30.54F
HILLSDALE      PTCLDY    28  12  50 SE3       30.48S
HOWELL         CLEAR     29   9  44 CALM      30.50F

CITY           SKY/WX    TMP DP  RH WIND       PRES   REMARKS
JACKSON        CLOUDY    30   9  41 NE6       30.50F WCI  24
LAMBERTVILLE   PTCLDY    30  16  55 SE5       30.53F WCI  25
LANSING        CLOUDY    29   8  41 NE3       30.53S
LAPEER         FAIR      27  13  56 E3        30.53S
MASON          PTCLDY    30  15  53 CALM      30.51S
MONROE         MOCLDY    28  19  68 S5        30.54S WCI  23
PONTIAC        PTCLDY    29   8  41 NE3       30.51S
PORT HOPE        N/A     22  12  65 SE3       30.54S
PORT HURON     CLEAR     21  14  73 E3        30.56F
TRI CITIES     CLEAR     26   9  48 SE7       30.54S WCI  18
MIDLAND        FAIR      29   9  41 S5        30.53R WCI  24
TROY           CLEAR     30  13  48 E5        30.56R WCI  25
SAGINAW HB     CLEAR     28   5  37 SE3       30.54S
$$
MIZ043>046-050>051-056>058-064>065-071>073-077>080-230200-
SOUTHWEST LOWER MICHIGAN

CITY           SKY/WX    TMP DP  RH WIND       PRES   REMARKS
BATTLE CREEK   CLOUDY    33   8  35 E5        30.50S WCI  29
BENTON HARBOR  PTCLDY    29  18  63 NE3       30.51S
BIG RAPIDS     CLEAR     30   8  38 W5        30.48S WCI  26
COLDWATER      CLOUDY    31  10  41 CALM      30.49F
FREMONT        FAIR      28  16  61 W6        30.50S WCI  21
HOLLAND        CLOUDY    30  17  58 CALM      30.52S
GRAND RAPIDS   MOCLDY    30  10  43 SE7       30.50F WCI  23
IONIA          FAIR      29  12  48 E5        30.51S WCI  24
KALAMAZOO      PTCLDY    33   9  36 SE3       30.50S
LUDINGTON      CLOUDY    25  17  72 CALM      30.52S
MARSHALL       PTCLDY    31   9  39 CALM      30.50S
MOUNT PLEASANT CLEAR     29   8  41 S5        30.51S WCI  24
MUSKEGON       CLOUDY    28  16  60 N6        30.52F WCI  22
SOUTH HAVEN    CLOUDY    28  19  68 CALM      30.52R
$$
MIZ016>042-230200-
NORTHERN LOWER MICHIGAN

CITY           SKY/WX    TMP DP  RH WIND       PRES   REMARKS
ALPENA         CLEAR     22  12  65 SE8       30.53F WCI  12
BEAVER ISLAND  CLEAR     23  15  70 CALM      30.51F
BELLAIRE       CLEAR     24   8  49 CALM      30.53S
CADILLAC       CLEAR     26   5  42 N5        30.45S WCI  20
CHARLEVOIX     CLEAR     22  14  71 CALM      30.55S
FRANKFORT      CLEAR     24  15  68 CALM      30.52S
GAYLORD        CLEAR     26   5  40 NW3       30.47F
GRAYLING       CLEAR     25   7  46 CALM      30.48S
HARBOR SPRINGS CLEAR     21  17  83 CALM      30.52F
HOUGHTON LAKE  CLEAR     28   8  43 S5        30.48S WCI  23
MANISTEE       CLEAR     23  17  78 CALM      30.52S
OSCODA         CLEAR     24  13  62 CALM      30.53F
PELLSTON       CLEAR     25   8  48 W3        30.52F
ROGERS CITY    CLEAR     23  10  58 CALM      30.53S
TRAVERSE CITY  PTCLDY    24  11  57 E3        30.51F
$$
MIZ007>008-015-230200-
EASTERN UPPER MICHIGAN

CITY           SKY/WX    TMP DP  RH WIND       PRES   REMARKS
KINROSS        CLEAR     19  10  68 NW5       30.51F WCI  12
MACKINAC ISLAN CLEAR     23  17  77 W6        30.51F WCI  16
NEWBERRY       CLEAR     24  14  67 CALM      30.49S
S. S. MARIE    CLEAR     21   7  54 W3        30.51F
MUNISING         N/A     25  15  66 SW3       30.48S
$$
MIZ004>006-011>014-085-230200-
CENTRAL UPPER MICHIGAN

CITY           SKY/WX    TMP DP  RH WIND       PRES   REMARKS
MANISTIQUE     CLEAR     25  18  74 S7        30.50S WCI  17
ESCANABA       CLEAR     26  17  68 S6        30.50F WCI  19
MENOMINEE        N/A    N/A N/A N/A MISG        N/A
SAWYER-GWINN   CLEAR     23  16  74 CALM      30.44S
$$
MIZ001>003-009>011-084-230200-
WESTERN UPPER MICHIGAN

CITY           SKY/WX    TMP DP  RH WIND       PRES   REMARKS
IRON MOUNTAIN  CLEAR     29   7  39 SE7       30.42S WCI  22
HOUGHTON       CLEAR     24  13  62 E8        30.41F WCI  15
COPPER HARBOR    N/A     21  14  74 CALM      30.46F
$$

ABBREVIATIONS USED IN REMARKS
   TC - TEMPERATURE IN CELSIUS
  WCI - WIND CHILL INDEX
   HX - HEAT INDEX
  VSB - VISIBILITY





USA.gov is the U.S. government's official web portal to all federal, state and local government web resources and services.